Location: Binningen
(47.7924°N, 8.7261°E)
Time: 23:01:22
(UTC+00:00)

Cosmos 1680 Rocket - Pass Details

Date: 17 May 2021
Orbit: 759 x 781 km, 74.1° (Epoch: 24 June)

Event Time Altitude Azimuth Distance (km) Brightness Sun altitude
Rises 20:09:59 0° 338° (NNW) 3,278 8.1 -10.2°
Reaches altitude 10° 20:12:24 10° 341° (NNW) 2,347 7.1 -10.5°
Maximum altitude 20:17:43 70° 65° (ENE) 834 3.6 -11.1°
Enters shadow 20:22:06 15° 148° (SSE) 1,985 5.0 -11.6°
